RADUGA 15 [-]

Last updated on July 6, 2021, 3:35 p.m. UTC

1 15057U 84063A   21186.57862677  .00000097  00000-0  00000+0 0  9990
2 15057  12.1222 326.3201 0005968 128.4513  54.5927  1.00282238122967
UTC
Height (km)
Latitude
Longitude
Inclination
Orbital Period
UTC large
Height (km)
Speed (km/s)
/
Latitude / Longitude
Inclination (degrees)
Orbital Period (minutes)
Azimuth
Elevation
Range (km)
Doppler Factor
iOS Compass Heading
iOS Angle